[[{"header":{"parameterUnit":"m.s-1","parameterCategory":2,"la1":30.2991,"la2":30.254,"lo1":-89.0895,"lo2":-89.0444,"dy":0.0017,"dx":0.0017,"nx":28,"ny":28,"refTime":"2025-04-01T03:00:00:Z","depth":"0","parameterNumber":2,"parameterNumberName":"U-component_of_CURRENTS"},"data":[0,0,0,0,0,0,0,0,0,0,0,0,0,0,0,0,0,0,0,0,0,0,0,0,0,0,0,0,0,0,0,0,0,0,0,0,0,0,0,0,0,0,0,0,0,0,0,0,0,0,0,0,0,0,0,0,0,0,-0.1525,-0.1525,0,-0.1483,-0.1483,-0.1482,-0.1446,-0.1446,-0.1446,-0.1446,-0.1481,-0.1482,-0.1483,0,0,0,0,0,0,0,0,0,0,0,0,0,-0.1505,-0.1505,-0.1525,-0.1525,-0.1524,-0.1484,-0.1483,-0.1482,-0.1446,-0.1446,-0.1446,-0.1446,-0.1481,-0.1482,-0.1483,0,0,0,0,0,0,0,0,0,0,0,0,0,-0.149,-0.1506,-0.1525,-0.1504,-0.1502,-0.1484,-0.1483,-0.1482,-0.1446,-0.1446,-0.1446,-0.1446,-0.1481,-0.1482,-0.1484,-0.1496,0,0,-0.1488,-0.1489,0,0,0,0,0,0,0,0,-0.1491,-0.1491,-0.1507,-0.1506,-0.1503,-0.1473,-0.1489,-0.1491,-0.1446,-0.1464,-0.1446,-0.1446,-0.1488,-0.1489,-0.1475,-0.1497,-0.1499,-0.1488,-0.1489,-0.149,-0.149,0,0,0,0,0,0,0,-0.1492,-0.1492,-0.1505,-0.1507,-0.1505,-0.1474,-0.1472,-0.1488,-0.1476,-0.1462,-0.146,-0.1461,-0.1487,-0.1474,-0.1476,-0.1499,-0.1488,-0.149,-0.1491,-0.1491,-0.1676,-0.168,0,0,0,0,0,0,-0.1508,-0.1493,-0.1506,-0.1504,-0.1501,-0.1475,-0.1473,-0.148,-0.1474,-0.1473,-0.1462,-0.146,-0.1471,-0.1474,-0.1478,-0.1572,-0.149,-0.1491,-0.1492,-0.1672,-0.1677,-0.1681,0,0,0,0,0,0,-0.1508,-0.151,-0.1508,-0.15,-0.1498,-0.1477,-0.1484,-0.1479,-0.1461,-0.1473,-0.1473,-0.1449,-0.1471,-0.1475,-0.155,-0.157,-0.1492,-0.1494,-0.1667,-0.1674,-0.1679,-0.1709,0,0,0,0,0,0,-0.1508,-0.1511,-0.1536,-0.1501,-0.1499,-0.1509,-0.1485,-0.1479,-0.1464,-0.1462,-0.1463,-0.1466,-0.1471,-0.1548,-0.1552,-0.1571,-0.1495,-0.1662,-0.167,-0.1677,-0.1703,-0.1716,-0.1726,0,0,0,0,0,-0.1507,-0.1521,-0.1538,-0.154,-0.1531,-0.151,-0.1506,-0.1487,-0.1464,-0.1467,-0.1506,-0.1466,-0.1598,-0.1553,-0.1556,-0.1576,-0.1659,-0.1668,-0.1677,-0.1698,-0.1713,-0.1726,0,0,0,0,0,0,-0.1527,-0.1519,-0.1536,-0.1551,-0.1547,-0.1506,-0.1499,-0.1485,-0.1508,-0.1504,-0.1514,-0.1523,-0.1596,-0.1601,-0.1551,-0.1662,-0.1622,-0.1632,-0.1637,-0.1651,-0.1663,-0.165,-0.1496,0,0,0,0,0,-0.1549,-0.1547,-0.155,-0.1559,-0.1557,-0.153,-0.1522,-0.1505,-0.1512,-0.1516,-0.1538,-0.1577,-0.1634,-0.1654,-0.1699,-0.175,-0.1743,-0.1773,-0.1784,-0.1793,-0.1793,-0.1798,-0.1808,-0.1711,-0.1711,-0.171,0,0,-0.1556,-0.1551,-0.1553,-0.1562,-0.1545,-0.1568,-0.1522,-0.1498,-0.1535,-0.1522,-0.1587,-0.1613,-0.1664,-0.1737,-0.1768,-0.174,-0.183,-0.1805,-0.1811,-0.1806,-0.1808,-0.1817,-0.1824,-0.1717,-0.1716,-0.1715,0,0,-0.155,-0.1566,-0.1568,-0.1582,-0.1573,-0.157,-0.1568,-0.1551,-0.1564,-0.1635,-0.1647,-0.1694,-0.1774,-0.1807,-0.1838,-0.1941,-0.1894,-0.1957,-0.1988,-0.1994,-0.1999,-0.2004,-0.2038,-0.2046,-0.1955,-0.1955,-0.1955,0,-0.1575,-0.1587,-0.1565,-0.1587,-0.1614,-0.1579,-0.1612,-0.1624,-0.1647,-0.1682,-0.1673,-0.1798,-0.181,-0.1905,-0.1941,-0.1957,-0.1964,-0.1918,-0.2001,-0.2005,-0.201,-0.2043,-0.2051,-0.1957,-0.1957,-0.1957,-0.1956,0,-0.157,-0.1614,-0.1607,-0.1645,-0.167,-0.1675,-0.171,-0.1737,-0.1753,-0.178,-0.1871,-0.1902,-0.1968,-0.1983,-0.199,-0.2042,-0.2041,-0.201,-0.1944,-0.202,-0.2053,-0.206,-0.1961,-0.196,-0.1959,-0.1959,0,0,-0.1562,-0.1603,-0.1613,-0.1655,-0.1706,-0.1711,-0.1793,-0.1857,-0.1898,-0.1945,-0.2016,-0.2093,-0.2072,-0.2107,-0.2104,-0.2101,-0.2131,-0.2064,-0.2063,-0.2061,-0.2167,-0.2115,-0.2118,-0.21,-0.2101,-0.2102,-0.2186,0,-0.1583,-0.1623,-0.1661,-0.1742,-0.1772,-0.182,-0.1903,-0.1959,-0.2004,-0.2067,-0.2097,-0.2158,-0.2133,-0.2141,-0.2144,-0.2135,-0.2149,-0.2113,-0.2127,-0.2128,-0.2039,-0.2123,-0.1999,-0.2058,-0.2193,-0.2194,-0.2195,0,-0.1593,-0.1617,-0.1677,-0.1792,-0.1814,-0.1865,-0.1967,-0.204,-0.2131,-0.2167,-0.2222,-0.2237,-0.2276,-0.2215,-0.2247,-0.2224,-0.2202,-0.2186,-0.2188,-0.2127,-0.2088,-0.2004,-0.2066,-0.2025,-0.2206,-0.2205,-0.2204,0,-0.1559,-0.1657,-0.1694,-0.1731,-0.1835,-0.1885,-0.1954,-0.2054,-0.2129,-0.2204,-0.2246,-0.2305,-0.2317,-0.2313,-0.2286,-0.2265,-0.2301,-0.2267,-0.2219,-0.2217,-0.2108,-0.2093,-0.2092,-0.2282,-0.2281,-0.2281,-0.2281,0,-0.1579,-0.1638,-0.1668,-0.1688,-0.1759,-0.1852,-0.1945,-0.2018,-0.2134,-0.2221,-0.2268,-0.2319,-0.2329,-0.2354,-0.2326,-0.2305,-0.234,-0.2244,-0.2233,-0.2123,-0.2109,-0.2063,-0.2072,-0.2284,-0.2284,-0.2283,-0.2282,0,-0.1578,-0.1599,-0.1636,-0.1701,-0.1734,-0.1774,-0.1937,-0.2012,-0.211,-0.2217,-0.2243,-0.2338,-0.2365,-0.2386,-0.2381,-0.2346,-0.2282,-0.2309,-0.2196,-0.2168,-0.207,-0.2087,-0.2094,-0.2038,-0.2287,-0.2286,-0.2285,0,-0.1597,-0.1597,-0.1599,-0.1612,-0.1648,-0.1733,-0.1813,-0.1964,-0.2056,-0.2222,-0.2271,-0.2338,-0.2373,-0.2381,-0.2317,-0.2298,-0.2263,-0.2175,-0.2099,-0.2064,-0.2075,-0.2075,-0.2026,-0.1994,-0.1991,-0.1988,-0.1986,0,-0.1621,-0.1579,-0.1575,-0.1573,-0.1618,-0.1708,-0.1831,-0.19,-0.2083,-0.2168,-0.2273,-0.2308,-0.2319,-0.2235,-0.2203,-0.2163,-0.2098,-0.2123,-0.2102,-0.1867,-0.185,-0.1789,-0.1972,-0.1964,-0.1967,-0.1968,-0.1969,-0.197,-0.1603,-0.1587,-0.153,-0.1549,-0.16,-0.1672,-0.1723,-0.186,-0.1977,-0.2089,-0.2183,-0.2188,-0.2145,-0.2069,-0.2028,-0.188,-0.1953,-0.1812,-0.1849,-0.1864,-0.1757,-0.191,-0.1869,-0.187,-0.1871,-0.1873,-0.1874,0,-0.1573,-0.1558,-0.1551,-0.1543,-0.1582,-0.1623,-0.1738,-0.177,-0.1854,-0.1935,-0.1994,-0.1966,-0.1864,-0.1814,-0.1685,-0.1613,-0.1555,-0.1591,-0.155,-0.1522,-0.1658,-0.1587,-0.146,-0.146,-0.146,-0.146,-0.1461,-0.1461,-0.1544,-0.1514,-0.1504,-0.1517,-0.1535,-0.1559,-0.1589,-0.1617,-0.1652,-0.1659,-0.166,-0.1708,-0.172,-0.1707,-0.1552,-0.1468,-0.1419,-0.1386,-0.1437,-0.1514,-0.1537,-0.1558,-0.1492,-0.1347,-0.1347,-0.1202,-0.1201,-0.1201]},{"header":{"parameterUnit":"m.s-1","parameterCategory":2,"la1":30.2991,"la2":30.254,"lo1":-89.0895,"lo2":-89.0444,"dy":0.0017,"dx":0.0017,"nx":28,"ny":28,"refTime":"2025-04-01T03:00:00:Z","depth":"0","parameterNumber":3,"parameterNumberName":"V-component_of_CURRENTS"},"data":[0,0,0,0,0,0,0,0,0,0,0,0,0,0,0,0,0,0,0,0,0,0,0,0,0,0,0,0,0,0,0,0,0,0,0,0,0,0,0,0,0,0,0,0,0,0,0,0,0,0,0,0,0,0,0,0,0,0,-0.0594,-0.0594,0,-0.0566,-0.0566,-0.0565,-0.0544,-0.0544,-0.0544,-0.0544,-0.0538,-0.0537,-0.0537,0,0,0,0,0,0,0,0,0,0,0,0,0,-0.048,-0.0483,-0.0594,-0.0594,-0.0594,-0.0567,-0.0566,-0.0565,-0.0544,-0.0544,-0.0544,-0.0544,-0.0538,-0.0537,-0.0537,0,0,0,0,0,0,0,0,0,0,0,0,0,-0.0496,-0.0484,-0.0594,-0.0583,-0.0582,-0.0567,-0.0566,-0.0565,-0.0544,-0.0544,-0.0544,-0.0544,-0.0538,-0.0537,-0.0537,-0.0532,0,0,-0.0536,-0.0536,0,0,0,0,0,0,0,0,-0.0496,-0.05,-0.0584,-0.0583,-0.0582,-0.0562,-0.0523,-0.0556,-0.0544,-0.0555,-0.0544,-0.0545,-0.055,-0.0548,-0.0538,-0.0531,-0.0531,-0.0536,-0.0535,-0.0535,-0.0535,0,0,0,0,0,0,0,-0.0495,-0.05,-0.058,-0.0584,-0.0583,-0.0528,-0.0531,-0.0528,-0.055,-0.0554,-0.0553,-0.0555,-0.0549,-0.0538,-0.0538,-0.0531,-0.0536,-0.0535,-0.0535,-0.0535,-0.0602,-0.0604,0,0,0,0,0,0,-0.0513,-0.0501,-0.0581,-0.058,-0.0542,-0.0531,-0.0534,-0.0566,-0.0549,-0.0548,-0.0555,-0.0554,-0.0539,-0.0538,-0.0537,-0.0564,-0.0535,-0.0535,-0.0535,-0.06,-0.0602,-0.0604,0,0,0,0,0,0,-0.0511,-0.0521,-0.0582,-0.0539,-0.0544,-0.0534,-0.0568,-0.0565,-0.0551,-0.055,-0.0549,-0.0544,-0.0539,-0.0538,-0.0574,-0.0562,-0.0535,-0.0534,-0.0597,-0.06,-0.0603,-0.0595,0,0,0,0,0,0,-0.0508,-0.0522,-0.0551,-0.0542,-0.0547,-0.0578,-0.0568,-0.0564,-0.0554,-0.0552,-0.0541,-0.054,-0.0539,-0.0576,-0.0574,-0.0561,-0.0534,-0.0595,-0.0599,-0.0602,-0.0593,-0.0597,-0.0601,0,0,0,0,0,-0.0505,-0.0535,-0.0554,-0.0563,-0.059,-0.0578,-0.0575,-0.0564,-0.0553,-0.055,-0.0573,-0.054,-0.0598,-0.0577,-0.0575,-0.0561,-0.0593,-0.0598,-0.0602,-0.0591,-0.0596,-0.0601,0,0,0,0,0,0,-0.049,-0.0536,-0.0556,-0.0599,-0.0596,-0.0576,-0.0574,-0.0561,-0.057,-0.0574,-0.0569,-0.0572,-0.0588,-0.0597,-0.0574,-0.06,-0.0588,-0.0592,-0.058,-0.0585,-0.059,-0.0607,-0.0534,0,0,0,0,0,-0.0508,-0.0548,-0.0567,-0.0596,-0.0602,-0.0587,-0.0581,-0.0573,-0.0577,-0.0578,-0.0575,-0.059,-0.0604,-0.0615,-0.0622,-0.0642,-0.0624,-0.0636,-0.064,-0.0643,-0.0662,-0.0625,-0.0626,-0.0619,-0.0619,-0.0619,0,0,-0.0506,-0.0538,-0.0559,-0.0596,-0.0593,-0.0615,-0.0583,-0.0574,-0.0598,-0.0579,-0.0608,-0.0594,-0.0614,-0.0635,-0.0644,-0.0642,-0.0638,-0.0649,-0.0651,-0.0669,-0.063,-0.063,-0.063,-0.0622,-0.0622,-0.0621,0,0,-0.0517,-0.0556,-0.0595,-0.0609,-0.0622,-0.0617,-0.0617,-0.0606,-0.061,-0.0644,-0.063,-0.0624,-0.0657,-0.0654,-0.0664,-0.0702,-0.0653,-0.0699,-0.0736,-0.0699,-0.0698,-0.0697,-0.0668,-0.0664,-0.071,-0.071,-0.071,0,-0.052,-0.0579,-0.0594,-0.0635,-0.065,-0.0626,-0.0654,-0.0662,-0.0663,-0.067,-0.0667,-0.0679,-0.0669,-0.069,-0.0707,-0.0704,-0.0685,-0.0703,-0.0699,-0.0698,-0.0697,-0.0667,-0.0663,-0.071,-0.071,-0.071,-0.071,0,-0.0543,-0.0613,-0.0626,-0.0692,-0.0705,-0.0713,-0.0737,-0.0739,-0.0738,-0.074,-0.0748,-0.0739,-0.0741,-0.0728,-0.0737,-0.0723,-0.0711,-0.0692,-0.0672,-0.0696,-0.0664,-0.066,-0.071,-0.071,-0.071,-0.071,0,0,-0.0521,-0.0628,-0.0639,-0.0693,-0.0735,-0.0743,-0.0789,-0.081,-0.0823,-0.0826,-0.0836,-0.0844,-0.0799,-0.081,-0.0778,-0.0758,-0.0716,-0.0733,-0.0731,-0.068,-0.064,-0.0561,-0.0549,-0.0686,-0.0686,-0.0686,-0.0615,0,-0.0541,-0.0625,-0.0674,-0.0756,-0.0804,-0.0821,-0.0865,-0.0883,-0.0884,-0.0887,-0.0868,-0.0864,-0.0845,-0.0819,-0.0798,-0.0734,-0.0708,-0.0738,-0.0647,-0.0645,-0.0551,-0.0542,-0.0486,-0.0413,-0.0611,-0.061,-0.061,0,-0.0561,-0.0621,-0.0698,-0.0812,-0.083,-0.0869,-0.0902,-0.0939,-0.0948,-0.0948,-0.0933,-0.0904,-0.0878,-0.0846,-0.0771,-0.079,-0.0725,-0.0679,-0.0674,-0.0605,-0.0559,-0.0426,-0.0398,-0.0285,-0.0603,-0.0604,-0.0604,0,-0.0528,-0.0652,-0.0707,-0.0742,-0.0848,-0.0881,-0.0917,-0.0943,-0.0977,-0.0963,-0.0961,-0.0928,-0.0894,-0.0832,-0.0743,-0.075,-0.0649,-0.0636,-0.0509,-0.0503,-0.0443,-0.0432,-0.0275,-0.0575,-0.0576,-0.0576,-0.0576,0,-0.0547,-0.0614,-0.0698,-0.0737,-0.0807,-0.0874,-0.0932,-0.0953,-0.0983,-0.1019,-0.0978,-0.0979,-0.0887,-0.0821,-0.0748,-0.0614,-0.0645,-0.0516,-0.0476,-0.044,-0.043,-0.032,-0.0284,-0.0573,-0.0574,-0.0574,-0.0575,0,-0.0551,-0.0602,-0.0686,-0.0776,-0.0809,-0.0855,-0.0964,-0.1007,-0.1014,-0.105,-0.1047,-0.1006,-0.0915,-0.0813,-0.0688,-0.0599,-0.0401,-0.0429,-0.0395,-0.0352,-0.0125,-0.0092,0.008,0.0137,-0.0281,-0.0279,-0.0277,0,-0.0566,-0.0603,-0.069,-0.0747,-0.0804,-0.0887,-0.0955,-0.1011,-0.1059,-0.1079,-0.1098,-0.1009,-0.0959,-0.0739,-0.0547,-0.037,-0.0304,-0.0205,-0.0203,-0.0097,-0.0032,-0.0013,0.0023,-0.0124,-0.0121,-0.0118,-0.0116,0,-0.0589,-0.0603,-0.0662,-0.0773,-0.0857,-0.0955,-0.1048,-0.1089,-0.1152,-0.117,-0.118,-0.1131,-0.0887,-0.0651,-0.0373,-0.0265,-0.0099,-0.0145,-0.004,0.01,0.0135,0.0205,-0.0196,-0.0094,-0.0096,-0.0098,-0.0099,-0.01,-0.0582,-0.063,-0.0698,-0.0822,-0.0922,-0.1031,-0.1109,-0.1191,-0.1262,-0.1293,-0.123,-0.1128,-0.0744,-0.0343,-0.0205,0.0151,0.0092,0.0244,0.0272,0.028,0.0351,0.0002,0.0157,0.0156,0.0155,0.0155,0.0154,0,-0.057,-0.0655,-0.0762,-0.0912,-0.1047,-0.1077,-0.1192,-0.1263,-0.1351,-0.1298,-0.1276,-0.0883,-0.0494,-0.0135,0.0368,0.0551,0.0567,0.0627,0.0656,0.0668,0.0365,0.0388,0.0608,0.0608,0.0608,0.0608,0.0608,0.0607,-0.057,-0.0672,-0.0759,-0.0998,-0.1114,-0.127,-0.1331,-0.1394,-0.1376,-0.1269,-0.1069,-0.0904,-0.0374,0.0413,0.0858,0.09,0.0994,0.1016,0.1043,0.0826,0.0791,0.0758,0.0791,0.1091,0.1092,0.134,0.1342,0.1344]}],[{"header":{"parameterUnit":"m.s-1","parameterCategory":2,"la1":30.2991,"la2":30.254,"lo1":-89.0895,"lo2":-89.0444,"dy":0.0017,"dx":0.0017,"nx":28,"ny":28,"refTime":"2025-04-01T03:00:00:Z","depth":"2","parameterNumber":2,"parameterNumberName":"U-component_of_CURRENTS"},"data":[0,0,0,0,0,0,0,0,0,0,0,0,0,0,0,0,0,0,0,0,0,0,0,0,0,0,0,0,0,0,0,0,0,0,0,0,0,0,0,0,0,0,0,0,0,0,0,0,0,0,0,0,0,0,0,0,0,0,-0.0971,-0.0972,0,-0.1008,-0.1008,-0.1007,-0.1033,-0.1034,-0.1035,-0.1036,-0.099,-0.0987,-0.0985,0,0,0,0,0,0,0,0,0,0,0,0,0,-0.0985,-0.0983,-0.0971,-0.0972,-0.0973,-0.1008,-0.1008,-0.1007,-0.1032,-0.1034,-0.1035,-0.1036,-0.099,-0.0988,-0.0985,0,0,0,0,0,0,0,0,0,0,0,0,0,-0.0987,-0.0983,-0.097,-0.0997,-0.1,-0.1008,-0.1008,-0.1007,-0.1032,-0.1034,-0.1035,-0.1037,-0.0991,-0.0988,-0.0985,-0.0934,0,0,-0.0975,-0.0973,0,0,0,0,0,0,0,0,-0.0987,-0.0985,-0.0991,-0.0995,-0.0999,-0.1025,-0.0996,-0.0982,-0.1032,-0.101,-0.1036,-0.1037,-0.0998,-0.0995,-0.0987,-0.0932,-0.093,-0.0974,-0.0973,-0.0971,-0.097,0,0,0,0,0,0,0,-0.0986,-0.0984,-0.0976,-0.0993,-0.0997,-0.1029,-0.1029,-0.0994,-0.0987,-0.1012,-0.1016,-0.1035,-0.0999,-0.099,-0.0986,-0.0929,-0.0975,-0.0972,-0.097,-0.0968,-0.0866,-0.0866,0,0,0,0,0,0,-0.0995,-0.0983,-0.0975,-0.0978,-0.1007,-0.1028,-0.1028,-0.1008,-0.0989,-0.0991,-0.1033,-0.1036,-0.0994,-0.0989,-0.0984,-0.1055,-0.0971,-0.0968,-0.0966,-0.0867,-0.0866,-0.0865,0,0,0,0,0,0,-0.0994,-0.0992,-0.0974,-0.0992,-0.0993,-0.1027,-0.1003,-0.1008,-0.1013,-0.1008,-0.1007,-0.1037,-0.0995,-0.0989,-0.0903,-0.1049,-0.0967,-0.0964,-0.0868,-0.0867,-0.0866,-0.1113,0,0,0,0,0,0,-0.0993,-0.099,-0.0941,-0.0991,-0.0992,-0.099,-0.1003,-0.1008,-0.1026,-0.1029,-0.101,-0.1007,-0.0996,-0.0908,-0.09,-0.1043,-0.0961,-0.0869,-0.0867,-0.0866,-0.1105,-0.112,-0.1132,0,0,0,0,0,-0.0993,-0.0991,-0.0937,-0.0936,-0.0934,-0.0991,-0.0993,-0.1018,-0.1025,-0.1026,-0.0965,-0.1008,-0.0898,-0.0901,-0.0893,-0.104,-0.087,-0.0868,-0.0866,-0.1099,-0.1117,-0.1132,0,0,0,0,0,0,-0.1009,-0.0994,-0.0938,-0.0932,-0.0941,-0.0999,-0.1024,-0.1018,-0.0976,-0.0975,-0.0949,-0.0939,-0.097,-0.0895,-0.09,-0.099,-0.0911,-0.0908,-0.1091,-0.1108,-0.1121,-0.1075,-0.0958,0,0,0,0,0,-0.097,-0.0948,-0.0943,-0.0941,-0.095,-0.0966,-0.098,-0.0994,-0.0988,-0.0976,-0.0969,-0.094,-0.0952,-0.0932,-0.0929,-0.091,-0.0878,-0.1002,-0.1016,-0.1029,-0.0975,-0.1003,-0.1018,-0.086,-0.086,-0.086,0,0,-0.1004,-0.0972,-0.0973,-0.0938,-0.0958,-0.097,-0.0981,-0.1031,-0.1044,-0.0972,-0.0986,-0.1001,-0.0955,-0.0994,-0.1,-0.0946,-0.1071,-0.1026,-0.104,-0.0976,-0.1003,-0.102,-0.1034,-0.0859,-0.0859,-0.0859,0,0,-0.1032,-0.1007,-0.0964,-0.0977,-0.0975,-0.0998,-0.101,-0.105,-0.1069,-0.1054,-0.1055,-0.1082,-0.1069,-0.1086,-0.1086,-0.1129,-0.1168,-0.1183,-0.1202,-0.1235,-0.125,-0.1262,-0.1335,-0.1351,-0.1164,-0.1164,-0.1164,0,-0.1019,-0.0995,-0.0977,-0.0946,-0.099,-0.1012,-0.1025,-0.1044,-0.1049,-0.1077,-0.1082,-0.1122,-0.1122,-0.1162,-0.1201,-0.1183,-0.1194,-0.1178,-0.1263,-0.1274,-0.1282,-0.1352,-0.1367,-0.1176,-0.1174,-0.1173,-0.1172,0,-0.103,-0.1001,-0.1031,-0.0972,-0.099,-0.1065,-0.1079,-0.1121,-0.1171,-0.1191,-0.1268,-0.1245,-0.1262,-0.1328,-0.1279,-0.1366,-0.1364,-0.1322,-0.1251,-0.1315,-0.1383,-0.1395,-0.1192,-0.1188,-0.1185,-0.1182,0,0,-0.1019,-0.1019,-0.1022,-0.1015,-0.1042,-0.108,-0.1129,-0.1191,-0.1258,-0.1284,-0.136,-0.1409,-0.1425,-0.1409,-0.141,-0.1416,-0.1561,-0.1388,-0.1384,-0.1508,-0.1672,-0.1591,-0.1596,-0.1556,-0.1556,-0.1557,-0.1733,0,-0.1023,-0.0996,-0.1003,-0.1049,-0.1066,-0.1139,-0.1191,-0.124,-0.1319,-0.1399,-0.1417,-0.1482,-0.1448,-0.1495,-0.1505,-0.1526,-0.1583,-0.1517,-0.1539,-0.1539,-0.1501,-0.1601,-0.1415,-0.1545,-0.1744,-0.1746,-0.1747,0,-0.1009,-0.0997,-0.1016,-0.1099,-0.1121,-0.1159,-0.131,-0.136,-0.1459,-0.1504,-0.1551,-0.1574,-0.1593,-0.1565,-0.1615,-0.1578,-0.1637,-0.1651,-0.1658,-0.1474,-0.1474,-0.1483,-0.1557,-0.1765,-0.1764,-0.1762,-0.1761,0,-0.1006,-0.1034,-0.1067,-0.11,-0.1161,-0.1225,-0.1307,-0.1407,-0.1453,-0.1569,-0.1613,-0.1645,-0.1677,-0.1695,-0.1722,-0.1691,-0.1787,-0.176,-0.1754,-0.1753,-0.1527,-0.1501,-0.1833,-0.1833,-0.1832,-0.1832,-0.1831,0,-0.1031,-0.1061,-0.1083,-0.1109,-0.1195,-0.1243,-0.1355,-0.1449,-0.1529,-0.1595,-0.1656,-0.1694,-0.1708,-0.1764,-0.1773,-0.1786,-0.1844,-0.1759,-0.1778,-0.1613,-0.1594,-0.1685,-0.1665,-0.1839,-0.1837,-0.1836,-0.1835,0,-0.099,-0.1031,-0.1059,-0.1136,-0.1177,-0.1239,-0.1349,-0.1423,-0.1516,-0.1603,-0.1627,-0.1731,-0.1809,-0.1838,-0.1911,-0.1861,-0.188,-0.1899,-0.172,-0.171,-0.1826,-0.1817,-0.1897,-0.1895,-0.1893,-0.1892,-0.1891,0,-0.0982,-0.0968,-0.1031,-0.1078,-0.1122,-0.1214,-0.1278,-0.1389,-0.1455,-0.1619,-0.1655,-0.1781,-0.1855,-0.1917,-0.186,-0.1878,-0.1932,-0.1723,-0.1593,-0.1815,-0.1827,-0.182,-0.1812,-0.1454,-0.145,-0.1446,-0.1443,0,-0.0947,-0.0947,-0.0974,-0.1019,-0.1103,-0.1167,-0.1287,-0.1308,-0.1462,-0.1541,-0.1675,-0.1755,-0.183,-0.1745,-0.176,-0.1726,-0.1674,-0.1646,-0.1942,-0.1436,-0.1402,-0.1412,-0.1419,-0.141,-0.1413,-0.1416,-0.1417,-0.1419,-0.0926,-0.0926,-0.0949,-0.0988,-0.107,-0.1138,-0.1176,-0.1301,-0.1397,-0.1524,-0.1626,-0.1694,-0.166,-0.158,-0.1511,-0.1426,-0.1537,-0.1426,-0.1436,-0.145,-0.1336,-0.1297,-0.1269,-0.1272,-0.1274,-0.1276,-0.1277,0,-0.0946,-0.0915,-0.0931,-0.1004,-0.1041,-0.11,-0.1179,-0.1199,-0.1312,-0.1435,-0.1527,-0.1384,-0.1341,-0.1325,-0.1136,-0.1081,-0.1056,-0.1027,-0.0982,-0.1014,-0.1042,-0.0906,-0.0727,-0.0726,-0.0725,-0.0724,0,0,-0.0958,-0.0948,-0.0913,-0.095,-0.0996,-0.1031,-0.1051,-0.1109,-0.1162,-0.1215,-0.124,-0.1338,-0.1316,-0.1054,-0.095,-0.0822,-0.0924,-0.0776,-0.121,-0.1192,-0.1221,-0.1255,-0.1079,0,0,0,0,0]},{"header":{"parameterUnit":"m.s-1","parameterCategory":2,"la1":30.2991,"la2":30.254,"lo1":-89.0895,"lo2":-89.0444,"dy":0.0017,"dx":0.0017,"nx":28,"ny":28,"refTime":"2025-04-01T03:00:00:Z","depth":"2","parameterNumber":3,"parameterNumberName":"V-component_of_CURRENTS"},"data":[0,0,0,0,0,0,0,0,0,0,0,0,0,0,0,0,0,0,0,0,0,0,0,0,0,0,0,0,0,0,0,0,0,0,0,0,0,0,0,0,0,0,0,0,0,0,0,0,0,0,0,0,0,0,0,0,0,0,-0.0013,-0.0016,0,-0.0122,-0.0122,-0.0122,-0.015,-0.0151,-0.0152,-0.0153,-0.0069,-0.0065,-0.0062,0,0,0,0,0,0,0,0,0,0,0,0,0,0.0037,0.0039,-0.0013,-0.0016,-0.0019,-0.0122,-0.0122,-0.0121,-0.0149,-0.0151,-0.0152,-0.0154,-0.007,-0.0066,-0.0062,0,0,0,0,0,0,0,0,0,0,0,0,0,0.0001,0.004,-0.0012,-0.0061,-0.0068,-0.0123,-0.0122,-0.0121,-0.0149,-0.0151,-0.0153,-0.0154,-0.0071,-0.0066,-0.0061,0.0007,0,0,-0.0046,-0.0043,0,0,0,0,0,0,0,0,0.0003,0.0002,-0.0051,-0.0058,-0.0066,-0.0143,-0.0075,-0.0076,-0.0149,-0.0096,-0.0153,-0.0155,-0.0088,-0.0081,-0.0071,0.0011,0.0015,-0.0045,-0.0042,-0.004,-0.0038,0,0,0,0,0,0,0,0.0006,0.0005,-0.0035,-0.0054,-0.0064,-0.0126,-0.0129,-0.0075,-0.006,-0.0101,-0.0108,-0.0153,-0.0088,-0.0076,-0.0069,0.0016,-0.0045,-0.0041,-0.0038,-0.0036,0.0094,0.0095,0,0,0,0,0,0,-0.0013,0.0009,-0.0032,-0.004,-0.0059,-0.0126,-0.0129,-0.0099,-0.0065,-0.007,-0.0152,-0.0155,-0.0083,-0.0075,-0.0066,-0.0075,-0.004,-0.0035,-0.0032,0.0094,0.0095,0.0095,0,0,0,0,0,0,-0.001,-0.0012,-0.0028,-0.004,-0.0049,-0.0126,-0.0092,-0.0101,-0.0099,-0.011,-0.0107,-0.0145,-0.0085,-0.0073,0.0014,-0.0069,-0.0033,-0.0028,0.0094,0.0094,0.0095,-0.0034,0,0,0,0,0,0,-0.0006,-0.0008,0.0022,-0.0038,-0.005,-0.0064,-0.0093,-0.0102,-0.0134,-0.0137,-0.0102,-0.0097,-0.0085,0.0007,0.0019,-0.0061,-0.0024,0.0093,0.0094,0.0095,-0.003,-0.0038,-0.0044,0,0,0,0,0,-0.0002,-0.0019,0.0027,0.0019,-0.0007,-0.0067,-0.0074,-0.0125,-0.0132,-0.0125,-0.0073,-0.0098,0.0017,0.0015,0.0028,-0.0054,0.0093,0.0094,0.0095,-0.0027,-0.0036,-0.0044,0,0,0,0,0,0,-0.0012,-0.0026,0.0022,0.0005,-0.0011,-0.008,-0.0127,-0.0117,-0.0073,-0.0082,-0.0045,-0.0033,-0.002,0.0027,0.0023,-0.0009,0.0031,0.0035,-0.0066,-0.0074,-0.0081,-0.0042,-0.002,0,0,0,0,0,0.0017,0.0019,0.0009,-0.0005,-0.0022,-0.0045,-0.0074,-0.0093,-0.0089,-0.0076,-0.005,-0.002,-0.0003,0.0019,0.0041,0.0077,0.0113,0.0024,0.0017,0.001,0.0056,0.0074,0.0072,0.0098,0.0098,0.0098,0,0,-0.0013,-0.0011,-0.0018,-0.0005,-0.0034,-0.0054,-0.0064,-0.013,-0.0124,-0.0068,-0.0049,-0.004,0.0006,0.0005,0.0012,0.0035,0.0009,0.0011,0.0004,0.0055,0.0075,0.0072,0.0069,0.0099,0.0098,0.0098,0,0,-0.0059,-0.0042,-0.003,-0.0049,-0.0083,-0.0099,-0.0107,-0.0142,-0.0133,-0.01,-0.0086,-0.0073,-0.0042,-0.0028,-0.0015,-0.0018,-0.0036,-0.0063,-0.0062,-0.0048,-0.005,-0.0052,-0.0075,-0.0077,-0.006,-0.0061,-0.0061,0,-0.006,-0.0053,-0.0048,-0.0051,-0.0096,-0.0111,-0.0125,-0.012,-0.0111,-0.0105,-0.0116,-0.0068,-0.0061,-0.0023,-0.0058,-0.0044,-0.0041,-0.0051,-0.0061,-0.0061,-0.006,-0.0083,-0.0084,-0.0067,-0.0066,-0.0065,-0.0065,0,-0.0094,-0.0093,-0.0134,-0.0102,-0.0117,-0.0188,-0.0175,-0.0184,-0.0197,-0.019,-0.0167,-0.0115,-0.0093,-0.0126,-0.01,-0.0102,-0.011,-0.009,-0.0052,-0.0071,-0.0094,-0.0093,-0.0075,-0.0073,-0.0071,-0.007,0,0,-0.0081,-0.0129,-0.0137,-0.0148,-0.0172,-0.0206,-0.0205,-0.0211,-0.0237,-0.0205,-0.0198,-0.0177,-0.0167,-0.014,-0.0114,-0.0086,-0.0139,-0.0094,-0.0091,-0.0138,-0.0142,-0.0054,-0.0044,-0.0138,-0.0137,-0.0136,-0.0186,0,-0.0098,-0.0128,-0.0132,-0.0192,-0.0229,-0.0255,-0.0252,-0.0253,-0.0271,-0.0274,-0.0205,-0.0203,-0.0163,-0.0181,-0.0142,-0.0122,-0.0129,-0.0128,-0.0092,-0.0091,-0.0027,-0.0035,-0.0037,-0.007,-0.0184,-0.0184,-0.0183,0,-0.0106,-0.0136,-0.0178,-0.025,-0.0265,-0.0294,-0.0349,-0.0352,-0.0345,-0.0334,-0.0291,-0.0266,-0.0193,-0.0182,-0.0105,-0.0113,-0.0141,-0.012,-0.0123,0.0029,0.0005,-0.0051,-0.0063,-0.018,-0.0181,-0.0181,-0.0181,0,-0.0116,-0.018,-0.0225,-0.0262,-0.0316,-0.0347,-0.0385,-0.0395,-0.0392,-0.0384,-0.0385,-0.0289,-0.0257,-0.0204,-0.0164,-0.0166,-0.0095,-0.0105,-0.0043,-0.0041,0.0013,0.0021,-0.0088,-0.0088,-0.0088,-0.0088,-0.0088,0,-0.0158,-0.0201,-0.026,-0.0308,-0.038,-0.0394,-0.0457,-0.0478,-0.0463,-0.0471,-0.0419,-0.0377,-0.0267,-0.0219,-0.018,-0.0075,-0.0117,-0.0018,-0.0025,-0.0037,-0.0033,-0.0059,-0.0055,-0.009,-0.0089,-0.0089,-0.0088,0,-0.0144,-0.02,-0.0275,-0.036,-0.0393,-0.0452,-0.0507,-0.0549,-0.0526,-0.0528,-0.0519,-0.0448,-0.0378,-0.027,-0.0208,-0.0105,-0.0024,-0.0011,-0.0037,-0.004,0.0007,0.0005,0.0067,0.007,0.0073,0.0075,0.0077,0,-0.0145,-0.0174,-0.0296,-0.0375,-0.043,-0.0512,-0.0562,-0.0572,-0.06,-0.0569,-0.0565,-0.0511,-0.046,-0.0272,-0.0104,0.002,-0.0019,0.0088,0.0125,0.0047,0.0033,0.0027,0.0022,0.0087,0.0089,0.0091,0.0092,0,-0.0144,-0.0181,-0.0257,-0.0398,-0.0505,-0.0583,-0.0667,-0.0674,-0.0684,-0.0678,-0.0662,-0.0627,-0.0424,-0.0241,-0.0037,0.0038,0.0099,0.0128,0.0045,0.0085,0.0074,0.0058,0.005,0.0105,0.0104,0.0103,0.0102,0.0102,-0.0145,-0.0204,-0.0318,-0.0444,-0.0569,-0.0672,-0.0733,-0.08,-0.0842,-0.0843,-0.0759,-0.0677,-0.0437,-0.0133,0.0037,0.021,0.0191,0.0234,0.0225,0.0216,0.0264,0.0264,0.0335,0.0335,0.0335,0.0335,0.0335,0,-0.017,-0.0238,-0.036,-0.0549,-0.0681,-0.0725,-0.081,-0.086,-0.0945,-0.0909,-0.0878,-0.0618,-0.0382,-0.015,0.0153,0.0343,0.0303,0.0358,0.0268,0.0255,0.0244,0.029,0.0369,0.0369,0.0369,0.037,0,0,-0.0201,-0.0309,-0.037,-0.0611,-0.0739,-0.089,-0.094,-0.1011,-0.1,-0.099,-0.0904,-0.0724,-0.0393,-0.0172,0.0067,0.022,0.0176,0.0228,0.0187,0.0041,0.0026,0.0169,0.0228,0,0,0,0,0]}],[{"header":{"parameterUnit":"m.s-1","parameterCategory":2,"la1":30.2991,"la2":30.254,"lo1":-89.0895,"lo2":-89.0444,"dy":0.0017,"dx":0.0017,"nx":28,"ny":28,"refTime":"2025-04-01T03:00:00:Z","depth":"4","parameterNumber":2,"parameterNumberName":"U-component_of_CURRENTS"},"data":[0,0,0,0,0,0,0,0,0,0,0,0,0,0,0,0,0,0,0,0,0,0,0,0,0,0,0,0,0,0,0,0,0,0,0,0,0,0,0,0,0,0,0,0,0,0,0,0,0,0,0,0,0,0,0,0,0,0,-0.0393,-0.0394,0,-0.0422,-0.0422,-0.0422,-0.0435,-0.0436,-0.0437,-0.0437,-0.0404,-0.0402,-0.0401,0,0,0,0,0,0,0,0,0,0,0,0,0,-0.0339,-0.034,-0.0393,-0.0394,-0.0395,-0.0422,-0.0422,-0.0422,-0.0435,-0.0436,-0.0437,-0.0437,-0.0404,-0.0402,-0.0401,0,0,0,0,0,0,0,0,0,0,0,0,0,-0.0358,-0.034,-0.0393,-0.041,-0.0413,-0.0422,-0.0422,-0.0422,-0.0435,-0.0436,-0.0437,-0.0438,-0.0405,-0.0403,-0.04,-0.0368,0,0,-0.0394,-0.0393,0,0,0,0,0,0,0,0,-0.0357,-0.0359,-0.0407,-0.0409,-0.0412,-0.0432,-0.0391,-0.0403,-0.0435,-0.0419,-0.0437,-0.0438,-0.0411,-0.0409,-0.0403,-0.0367,-0.0365,-0.0393,-0.0392,-0.0391,-0.0391,0,0,0,0,0,0,0,-0.0356,-0.0358,-0.0398,-0.0408,-0.0411,-0.0414,-0.0417,-0.0393,-0.0403,-0.0421,-0.0423,-0.0437,-0.0411,-0.0405,-0.0402,-0.0365,-0.0394,-0.0392,-0.039,-0.0389,-0.0294,-0.0293,0,0,0,0,0,0,-0.0366,-0.0357,-0.0397,-0.0399,-0.0394,-0.0415,-0.0418,-0.0419,-0.0405,-0.0406,-0.0437,-0.0438,-0.0408,-0.0405,-0.0401,-0.0369,-0.0391,-0.0389,-0.0388,-0.0296,-0.0294,-0.0293,0,0,0,0,0,0,-0.0364,-0.0369,-0.0396,-0.0385,-0.039,-0.0415,-0.0416,-0.0419,-0.0426,-0.0419,-0.0418,-0.0444,-0.0409,-0.0404,-0.0359,-0.0368,-0.0388,-0.0386,-0.0297,-0.0295,-0.0294,-0.03,0,0,0,0,0,0,-0.0362,-0.0367,-0.0364,-0.0385,-0.0391,-0.04,-0.0416,-0.0419,-0.0436,-0.0439,-0.0424,-0.0421,-0.0409,-0.0362,-0.0357,-0.0365,-0.0384,-0.0299,-0.0296,-0.0294,-0.0301,-0.0299,-0.0296,0,0,0,0,0,-0.036,-0.0375,-0.0363,-0.0368,-0.0388,-0.0401,-0.0402,-0.042,-0.0436,-0.043,-0.0405,-0.0422,-0.0346,-0.0359,-0.0353,-0.0361,-0.03,-0.0297,-0.0294,-0.0302,-0.0299,-0.0296,0,0,0,0,0,0,-0.0348,-0.0379,-0.0366,-0.0386,-0.0385,-0.0406,-0.042,-0.0424,-0.0402,-0.041,-0.0393,-0.0387,-0.0353,-0.0345,-0.0361,-0.0324,-0.0331,-0.0327,-0.0339,-0.0336,-0.0334,-0.0361,-0.0383,0,0,0,0,0,-0.0341,-0.0362,-0.037,-0.0382,-0.0388,-0.0398,-0.0407,-0.0416,-0.041,-0.0405,-0.0379,-0.0359,-0.0335,-0.0327,-0.0297,-0.0272,-0.0303,-0.0275,-0.0272,-0.0271,-0.0287,-0.0331,-0.0336,-0.0284,-0.0284,-0.0284,0,0,-0.0324,-0.0361,-0.0358,-0.038,-0.0389,-0.0382,-0.0405,-0.0428,-0.0415,-0.0402,-0.0363,-0.0342,-0.0322,-0.0289,-0.0277,-0.0288,-0.0298,-0.0267,-0.0266,-0.0284,-0.0329,-0.0335,-0.034,-0.0282,-0.0283,-0.0283,0,0,-0.0334,-0.0346,-0.0363,-0.0369,-0.0398,-0.0392,-0.0399,-0.0402,-0.0399,-0.0357,-0.0348,-0.0329,-0.0278,-0.0272,-0.0264,-0.023,-0.0276,-0.0224,-0.0245,-0.0287,-0.0293,-0.0299,-0.034,-0.0349,-0.0232,-0.0232,-0.0232,0,-0.0311,-0.0336,-0.0364,-0.0387,-0.0392,-0.0394,-0.0391,-0.0381,-0.0358,-0.0353,-0.0345,-0.0295,-0.0276,-0.0266,-0.0253,-0.023,-0.0263,-0.0262,-0.0289,-0.0295,-0.0301,-0.0342,-0.0352,-0.0232,-0.0232,-0.0232,-0.0232,0,-0.0327,-0.0339,-0.0359,-0.0371,-0.0371,-0.0381,-0.037,-0.0346,-0.0337,-0.0332,-0.0313,-0.0284,-0.0266,-0.0257,-0.0244,-0.0272,-0.0284,-0.0278,-0.0308,-0.0308,-0.0349,-0.036,-0.0232,-0.0232,-0.0232,-0.0232,0,0,-0.0283,-0.0351,-0.0353,-0.0355,-0.037,-0.0369,-0.0344,-0.0326,-0.0322,-0.0298,-0.03,-0.0267,-0.0281,-0.0273,-0.0267,-0.0304,-0.0363,-0.0314,-0.0316,-0.0375,-0.0468,-0.0435,-0.0444,-0.0373,-0.0375,-0.0376,-0.048,0,-0.0273,-0.0323,-0.0349,-0.0336,-0.0343,-0.0336,-0.0315,-0.0305,-0.0291,-0.0281,-0.0297,-0.0295,-0.0282,-0.029,-0.032,-0.0351,-0.0392,-0.0336,-0.0442,-0.0446,-0.0434,-0.0455,-0.0382,-0.0489,-0.0491,-0.0493,-0.0494,0,-0.0245,-0.0305,-0.0327,-0.0336,-0.0337,-0.0322,-0.0299,-0.0273,-0.0274,-0.0284,-0.0298,-0.0315,-0.0356,-0.0348,-0.0431,-0.04,-0.0438,-0.0467,-0.0472,-0.0452,-0.0433,-0.0487,-0.0514,-0.0513,-0.0511,-0.051,-0.0509,0,-0.0196,-0.0247,-0.0276,-0.0285,-0.0316,-0.0311,-0.0286,-0.0279,-0.0268,-0.0294,-0.0328,-0.0362,-0.0415,-0.0453,-0.0506,-0.0484,-0.0608,-0.0582,-0.0589,-0.0587,-0.0586,-0.0579,-0.0655,-0.0655,-0.0654,-0.0654,-0.0654,0,-0.0149,-0.0154,-0.0267,-0.0282,-0.0298,-0.0304,-0.0282,-0.0274,-0.028,-0.0296,-0.0339,-0.0385,-0.0455,-0.0523,-0.0537,-0.0602,-0.0638,-0.0609,-0.0618,-0.0581,-0.0573,-0.0594,-0.0585,-0.0658,-0.0657,-0.0656,-0.0656,0,-0.0044,-0.013,-0.0175,-0.0262,-0.0277,-0.028,-0.0267,-0.0262,-0.0286,-0.0311,-0.034,-0.0439,-0.0544,-0.0596,-0.0687,-0.0669,-0.0709,-0.0722,-0.0695,-0.0697,-0.0653,-0.0643,-0.0745,-0.0745,-0.0745,-0.0744,-0.0744,0,0.0001,-0.0029,-0.0153,-0.0217,-0.0257,-0.0263,-0.0273,-0.0262,-0.0237,-0.0338,-0.035,-0.0502,-0.0565,-0.0668,-0.0717,-0.0765,-0.0753,-0.0771,-0.0695,-0.0667,-0.0665,-0.0656,-0.0646,-0.0744,-0.0744,-0.0744,-0.0744,0,0.0065,0.0004,-0.0055,-0.0178,-0.024,-0.0245,-0.0226,-0.0203,-0.0211,-0.0286,-0.0369,-0.0463,-0.0595,-0.0662,-0.0726,-0.0741,-0.0748,-0.0769,-0.0768,-0.0697,-0.0667,-0.0663,-0.0654,-0.0744,-0.0744,-0.0744,-0.0744,0,0.0094,0.0067,-0.0043,-0.0146,-0.0214,-0.0205,-0.0187,-0.0184,-0.017,-0.0255,-0.0299,-0.0468,-0.0583,-0.0654,-0.0691,-0.0727,-0.0713,-0.0674,-0.0678,-0.0679,-0.061,-0.0559,-0.0627,0,0,0,0,0,0.0117,0.0082,-0.0005,-0.0122,-0.0174,-0.0198,-0.0164,-0.0143,-0.0163,-0.0214,-0.0232,-0.0347,-0.0489,-0.0561,-0.0589,-0.0658,-0.0699,-0.0686,-0.0649,-0.0741,-0.0741,-0.0665,0,0,0,0,0,0,0.0113,0.0065,0.001,-0.0078,-0.0137,-0.0157,-0.0128,-0.0148,-0.0111,-0.0178,-0.0239,-0.0349,-0.0463,-0.0504,-0.0607,-0.0627,-0.0594,-0.0777,-0.0776,-0.074,-0.0741,-0.0741,-0.0664,0,0,0,0,0]},{"header":{"parameterUnit":"m.s-1","parameterCategory":2,"la1":30.2991,"la2":30.254,"lo1":-89.0895,"lo2":-89.0444,"dy":0.0017,"dx":0.0017,"nx":28,"ny":28,"refTime":"2025-04-01T03:00:00:Z","depth":"4","parameterNumber":3,"parameterNumberName":"V-component_of_CURRENTS"},"data":[0,0,0,0,0,0,0,0,0,0,0,0,0,0,0,0,0,0,0,0,0,0,0,0,0,0,0,0,0,0,0,0,0,0,0,0,0,0,0,0,0,0,0,0,0,0,0,0,0,0,0,0,0,0,0,0,0,0,0.0348,0.0348,0,0.035,0.035,0.0351,0.0342,0.0342,0.0342,0.0341,0.0399,0.0401,0.0403,0,0,0,0,0,0,0,0,0,0,0,0,0,0.0302,0.0303,0.0348,0.0348,0.0348,0.035,0.035,0.0351,0.0342,0.0342,0.0342,0.0341,0.0399,0.0401,0.0403,0,0,0,0,0,0,0,0,0,0,0,0,0,0.0316,0.0304,0.0348,0.0344,0.0343,0.035,0.035,0.0351,0.0342,0.0342,0.0341,0.0341,0.0398,0.0401,0.0404,0.0431,0,0,0.0412,0.0413,0,0,0,0,0,0,0,0,0.0315,0.0318,0.0345,0.0344,0.0344,0.0345,0.0355,0.038,0.0343,0.0344,0.0341,0.0341,0.0386,0.039,0.0392,0.0433,0.0436,0.0412,0.0414,0.0415,0.0416,0,0,0,0,0,0,0,0.0314,0.0317,0.035,0.0344,0.0344,0.0329,0.0331,0.036,0.037,0.0344,0.0343,0.0342,0.0386,0.0389,0.0393,0.0437,0.0412,0.0415,0.0416,0.0418,0.0506,0.0507,0,0,0,0,0,0,0.0315,0.0317,0.035,0.035,0.0327,0.0331,0.0333,0.0346,0.0368,0.037,0.0342,0.0341,0.0385,0.039,0.0395,0.0432,0.0415,0.0418,0.0419,0.0505,0.0506,0.0507,0,0,0,0,0,0,0.0314,0.0318,0.035,0.0332,0.0334,0.0332,0.0347,0.0346,0.0352,0.0366,0.0369,0.0349,0.0384,0.0392,0.0432,0.0434,0.0419,0.0422,0.0504,0.0506,0.0506,0.0503,0,0,0,0,0,0,0.0313,0.0319,0.0325,0.0332,0.0336,0.0359,0.0347,0.0346,0.0352,0.0351,0.0374,0.0378,0.0385,0.0427,0.0434,0.0437,0.0424,0.0504,0.0505,0.0506,0.0502,0.0503,0.0505,0,0,0,0,0,0.0312,0.0316,0.0325,0.0329,0.0346,0.036,0.0361,0.0357,0.0353,0.036,0.0379,0.0377,0.044,0.0431,0.0439,0.0442,0.0503,0.0505,0.0506,0.0501,0.0503,0.0505,0,0,0,0,0,0,0.0303,0.0316,0.0326,0.0337,0.0353,0.0358,0.0361,0.0363,0.0382,0.0384,0.0397,0.0403,0.0435,0.0446,0.0436,0.0472,0.0467,0.047,0.0461,0.0463,0.0464,0.0431,0.0426,0,0,0,0,0,0.0306,0.0309,0.033,0.0339,0.0352,0.0361,0.0365,0.0367,0.0384,0.039,0.0405,0.0425,0.0447,0.0461,0.0483,0.0512,0.0513,0.0517,0.0518,0.0519,0.0499,0.0514,0.0514,0.0512,0.0512,0.0512,0,0,0.031,0.0311,0.0318,0.0337,0.035,0.0363,0.0363,0.0375,0.0377,0.0397,0.0411,0.0435,0.0458,0.0483,0.0498,0.0494,0.0525,0.0521,0.0522,0.05,0.0515,0.0515,0.0515,0.0513,0.0513,0.0513,0,0,0.0305,0.0324,0.0326,0.0341,0.0357,0.0363,0.037,0.0388,0.039,0.0417,0.0424,0.0448,0.0489,0.0493,0.0504,0.0529,0.0533,0.0542,0.0522,0.0538,0.0537,0.0537,0.0554,0.0555,0.0541,0.0541,0.0541,0,0.0303,0.0312,0.033,0.0337,0.0341,0.0366,0.0372,0.0384,0.0407,0.0406,0.0422,0.046,0.0485,0.0497,0.0505,0.0528,0.0542,0.0513,0.0538,0.0537,0.0537,0.0554,0.0555,0.0541,0.0541,0.0541,0.0541,0,0.0307,0.0313,0.0319,0.0333,0.0343,0.0354,0.0376,0.0385,0.0395,0.0402,0.0421,0.0456,0.047,0.0489,0.0508,0.0516,0.0528,0.0539,0.0528,0.0537,0.0555,0.0556,0.0541,0.0541,0.0541,0.0541,0,0,0.0304,0.0315,0.0318,0.0314,0.0339,0.0343,0.0354,0.0361,0.0357,0.0388,0.0376,0.0424,0.0435,0.0447,0.0472,0.0488,0.0512,0.0512,0.0513,0.0519,0.0552,0.0506,0.0503,0.0533,0.0533,0.0533,0.057,0,0.0299,0.029,0.0302,0.03,0.0302,0.0321,0.0324,0.0333,0.0348,0.0349,0.0375,0.0396,0.0422,0.044,0.0453,0.0493,0.0513,0.0501,0.055,0.0551,0.0501,0.0502,0.0532,0.0571,0.0572,0.0572,0.0572,0,0.0307,0.0286,0.0272,0.0264,0.027,0.0273,0.0268,0.0282,0.0295,0.0314,0.0327,0.0348,0.0367,0.04,0.0449,0.0443,0.0492,0.0526,0.0529,0.0479,0.0506,0.0559,0.0574,0.0574,0.0574,0.0574,0.0574,0,0.0283,0.0276,0.0246,0.0249,0.0243,0.0236,0.0251,0.0265,0.0271,0.03,0.0301,0.0324,0.0344,0.039,0.0448,0.0459,0.05,0.0528,0.0531,0.053,0.0562,0.0561,0.0566,0.0566,0.0566,0.0566,0.0566,0,0.0267,0.0252,0.023,0.0218,0.0181,0.0211,0.0196,0.022,0.0246,0.0242,0.0285,0.0273,0.0346,0.0368,0.0428,0.0466,0.0487,0.0513,0.0528,0.0563,0.0563,0.0564,0.0563,0.0567,0.0567,0.0567,0.0566,0,0.0246,0.0233,0.02,0.0178,0.0167,0.0151,0.0169,0.0158,0.0212,0.0205,0.0217,0.0246,0.0281,0.0339,0.0417,0.0439,0.0489,0.0508,0.053,0.0549,0.0517,0.0516,0.0508,0.0507,0.0506,0.0504,0.0504,0,0.0225,0.0205,0.0166,0.0124,0.0109,0.0094,0.0072,0.0131,0.0142,0.0173,0.0161,0.0193,0.0211,0.0256,0.0347,0.0443,0.0465,0.049,0.0505,0.0491,0.0508,0.0509,0.0509,0.0502,0.0501,0.0501,0.0501,0,0.0177,0.0173,0.0142,0.0074,0.0028,-0.001,-0.0004,0.0008,0.0068,0.0091,0.0084,0.0111,0.0143,0.0211,0.0292,0.0365,0.0464,0.0478,0.0482,0.0496,0.0483,0.0501,0.0503,0.0496,0.0497,0.0497,0.0498,0,0.0145,0.012,0.0089,0.002,-0.0043,-0.0083,-0.0072,-0.0067,-0.0045,0.0019,-0.0,0.0047,0.0087,0.0171,0.0237,0.0304,0.0332,0.0349,0.036,0.0366,0.0313,0.0276,0.0223,0,0,0,0,0,0.0117,0.0095,0.0033,-0.0038,-0.01,-0.0129,-0.0123,-0.0095,-0.0042,-0.0072,-0.0019,0.0003,0.008,0.0118,0.0175,0.0246,0.0369,0.0316,0.0401,0.0472,0.0477,0.0434,0,0,0,0,0,0,0.0097,0.0062,0.0034,-0.0075,-0.0134,-0.0191,-0.0188,-0.0157,-0.0138,-0.0092,-0.0054,-0.002,0.0066,0.0023,0.0152,0.0179,0.0234,0.0366,0.0366,0.0469,0.0474,0.0478,0.0435,0,0,0,0,0]}]]